Location: Newark
(40.2333°N, 1.4000°W)
Time: 08:36:55
(UTC+00:00)

Tiangong 2 - Visible Passes

Search period start: 22 March 2019 00:00
Search period end: 01 April 2019 00:00
Orbit: 379 x 390 km, 42.8° (Epoch: 22 March)

Date Brightness Start Highest point End Pass type
(mag) Time Alt. Az. Time Alt. Az. Time Alt. Az.
22 Mar 1.2 04:42:57 50° WSW 04:43:24 57° SSW 04:46:32 10° ESE visible
23 Mar 4.0 03:46:33 14° ESE 03:46:33 14° ESE 03:47:07 10° ESE visible
23 Mar 2.7 05:18:48 14° WSW 05:20:25 20° SSW 05:22:48 10° SSE visible
24 Mar 2.9 04:22:33 21° SSE 04:22:33 21° SSE 04:23:58 10° SE visible
25 Mar 3.5 04:58:45 10° SSW 04:58:45 10° SSW 04:58:53 10° SSW visible
29 Mar 3.3 19:09:44 10° SSE 19:10:48 11° SE 19:11:24 11° SE visible
30 Mar 1.8 19:44:43 10° SW 19:47:36 34° SSE 19:47:38 34° SSE visible
31 Mar 2.2 20:21:32 10° WSW 20:23:40 40° WSW 20:23:40 40° WSW visible
